| time (UTC) | temp F | wind direction | speed MPH | gust MPH | rain 1hr in | rain 24hr in | rain mn in | humidity % | barometer mb |
| 20260507185007 | 62 | 96 | 1.0 | 5.0 | 0.00 | 0.19 | 0.02 | 47 | 1008.8 |
| 20260507184526 | 63 | 324 | 1.0 | 6.0 | 0.00 | 0.19 | 0.02 | 46 | 1008.9 |
| 20260507184005 | 63 | 360 | 3.0 | 6.0 | 0.00 | 0.19 | 0.02 | 47 | 1008.9 |
| 20260507183514 | 64 | 316 | 2.0 | 5.0 | 0.00 | 0.19 | 0.02 | 45 | 1008.9 |
| 20260507183012 | 63 | 319 | 1.0 | 5.0 | 0.00 | 0.19 | 0.02 | 46 | 1008.9 |
| 20260507182506 | 64 | 281 | 1.0 | 3.0 | 0.00 | 0.19 | 0.02 | 45 | 1008.9 |
| 20260507182007 | 64 | 184 | 1.0 | 8.0 | 0.00 | 0.19 | 0.02 | 50 | 1009.1 |
| 20260507181519 | 63 | 30 | 2.0 | 10.0 | 0.00 | 0.19 | 0.02 | 46 | 1009.1 |
| 20260507181014 | 64 | 304 | 2.0 | 10.0 | 0.00 | 0.19 | 0.02 | 47 | 1009.1 |
| 20260507180506 | 63 | 190 | 3.0 | 8.0 | 0.00 | 0.19 | 0.02 | 45 | 1009.1 |
| 20260507180025 | 64 | 32 | 2.0 | 10.0 | 0.00 | 0.19 | 0.02 | 43 | 1009.3 |
| 20260507175508 | 64 | 248 | 3.0 | 10.0 | 0.00 | 0.19 | 0.02 | 47 | 1009.3 |
| 20260507175009 | 63 | 336 | 1.0 | 8.0 | 0.00 | 0.19 | 0.02 | 46 | 1009.3 |
| 20260507174528 | 63 | 360 | 3.0 | 10.0 | 0.00 | 0.19 | 0.02 | 48 | 1009.3 |
| 20260507174007 | 63 | 257 | 3.0 | 10.0 | 0.00 | 0.19 | 0.02 | 46 | 1009.5 |
| 20260507173508 | 62 | 260 | 4.0 | 8.0 | 0.00 | 0.19 | 0.02 | 47 | 1009.6 |
| 20260507173032 | 62 | 129 | 1.0 | 8.0 | 0.00 | 0.19 | 0.02 | 47 | 1009.6 |
| 20260507172506 | 62 | 315 | 3.0 | 8.0 | 0.00 | 0.19 | 0.02 | 51 | 1009.7 |
| 20260507172006 | 61 | 134 | 5.0 | 8.0 | 0.00 | 0.19 | 0.02 | 48 | 1009.8 |
| 20260507171512 | 62 | 104 | 3.0 | 7.0 | 0.00 | 0.19 | 0.02 | 50 | 1009.9 |
| 20260507171009 | 61 | 159 | 2.0 | 7.0 | 0.00 | 0.19 | 0.02 | 51 | 1010.0 |
| 20260507170508 | 61 | 137 | 4.0 | 6.0 | 0.00 | 0.19 | 0.02 | 50 | 1010.1 |
| 20260507170018 | 61 | 326 | 1.0 | 5.0 | 0.00 | 0.19 | 0.02 | 50 | 1010.2 |
| 20260507165509 | 61 | 182 | 3.0 | 7.0 | 0.00 | 0.19 | 0.02 | 50 | 1010.2 |
| 20260507165011 | 61 | 196 | 4.0 | 7.0 | 0.00 | 0.19 | 0.02 | 48 | 1010.4 |
| 20260507164525 | 60 | 143 | 2.0 | 5.0 | 0.00 | 0.19 | 0.02 | 53 | 1010.6 |
| 20260507164008 | 58 | 194 | 2.0 | 5.0 | 0.00 | 0.19 | 0.02 | 51 | 1010.8 |
| 20260507163508 | 59 | 66 | 2.0 | 5.0 | 0.00 | 0.19 | 0.02 | 49 | 1010.8 |
| 20260507163023 | 60 | 60 | 1.0 | 6.0 | 0.00 | 0.19 | 0.02 | 52 | 1010.9 |
| 20260507162508 | 60 | 305 | 3.0 | 6.0 | 0.00 | 0.19 | 0.02 | 55 | 1011.1 |
| 20260507162010 | 60 | 32 | 2.0 | 6.0 | 0.00 | 0.19 | 0.02 | 54 | 1011.0 |
| 20260507161527 | 59 | 44 | 1.0 | 6.0 | 0.00 | 0.19 | 0.02 | 51 | 1011.0 |
| 20260507161008 | 58 | 15 | 2.0 | 6.0 | 0.00 | 0.19 | 0.02 | 52 | 1011.2 |
| 20260507160504 | 57 | 57 | 1.0 | 5.0 | 0.00 | 0.19 | 0.02 | 57 | 1011.1 |
| 20260507160017 | 57 | 344 | 2.0 | 4.0 | 0.00 | 0.19 | 0.02 | 51 | 1011.3 |
| 20260507155506 | 57 | 311 | 1.0 | 7.0 | 0.00 | 0.19 | 0.02 | 51 | 1011.4 |
| 20260507155009 | 57 | 74 | 4.0 | 7.0 | 0.00 | 0.19 | 0.02 | 53 | 1011.5 |
| 20260507154521 | 56 | 22 | 2.0 | 4.0 | 0.00 | 0.19 | 0.02 | 53 | 1011.3 |
| 20260507154012 | 56 | 109 | 2.0 | 4.0 | 0.00 | 0.19 | 0.02 | 53 | 1011.4 |
| 20260507153509 | 56 | 352 | 1.0 | 5.0 | 0.00 | 0.19 | 0.02 | 53 | 1011.4 |
| 20260507153025 | 56 | 73 | 2.0 | 5.0 | 0.00 | 0.19 | 0.02 | 56 | 1011.7 |
| 20260507152513 | 55 | 15 | 3.0 | 5.0 | 0.00 | 0.19 | 0.02 | 55 | 1011.4 |
| 20260507152010 | 55 | 24 | 2.0 | 8.0 | 0.00 | 0.19 | 0.02 | 53 | 1011.7 |
| 20260507151527 | 55 | 48 | 2.0 | 8.0 | 0.00 | 0.19 | 0.02 | 55 | 1011.6 |
| 20260507151008 | 55 | 32 | 2.0 | 7.0 | 0.00 | 0.19 | 0.02 | 53 | 1011.8 |
| 20260507150510 | 55 | 231 | 3.0 | 7.0 | 0.00 | 0.19 | 0.02 | 52 | 1011.8 |
| 20260507150028 | 55 | 213 | 1.0 | 5.0 | 0.00 | 0.19 | 0.02 | 58 | 1011.8 |
| 20260507145511 | 55 | 352 | 1.0 | 9.0 | 0.00 | 0.19 | 0.02 | 54 | 1011.9 |
| 20260507145010 | 55 | 350 | 1.0 | 9.0 | 0.00 | 0.19 | 0.02 | 56 | 1012.1 |
| 20260507144525 | 54 | 306 | 3.0 | 8.0 | 0.00 | 0.19 | 0.02 | 54 | 1012.1 |
| 20260507144010 | 54 | 307 | 3.0 | 8.0 | 0.00 | 0.19 | 0.02 | 57 | 1012.1 |
| 20260507143509 | 54 | 234 | 3.0 | 8.0 | 0.00 | 0.19 | 0.02 | 58 | 1012.4 |
| 20260507143030 | 54 | 321 | 4.0 | 8.0 | 0.00 | 0.19 | 0.02 | 55 | 1012.4 |
| 20260507142506 | 54 | 332 | 2.0 | 5.0 | 0.00 | 0.20 | 0.02 | 58 | 1012.3 |
| 20260507142007 | 53 | 106 | 2.0 | 6.0 | 0.00 | 0.20 | 0.02 | 59 | 1012.3 |
| 20260507141525 | 54 | 338 | 2.0 | 10.0 | 0.00 | 0.20 | 0.02 | 57 | 1012.4 |
| 20260507141007 | 53 | 32 | 3.0 | 10.0 | 0.00 | 0.20 | 0.02 | 56 | 1012.4 |
| 20260507140512 | 53 | 336 | 3.0 | 6.0 | 0.00 | 0.20 | 0.02 | 57 | 1012.3 |
| 20260507140031 | 53 | 300 | 2.0 | 4.0 | 0.00 | 0.21 | 0.02 | 59 | 1012.4 |
| 20260507135510 | 53 | 5 | 0.0 | 5.0 | 0.00 | 0.21 | 0.02 | 62 | 1012.4 |
| 20260507135004 | 53 | 305 | 1.0 | 8.0 | 0.00 | 0.21 | 0.02 | 61 | 1012.5 |
| 20260507134528 | 53 | 44 | 2.0 | 8.0 | 0.00 | 0.21 | 0.02 | 60 | 1012.5 |
| 20260507134005 | 53 | 37 | 2.0 | 7.0 | 0.00 | 0.22 | 0.02 | 61 | 1012.6 |
| 20260507133507 | 53 | 9 | 2.0 | 8.0 | 0.00 | 0.22 | 0.02 | 61 | 1012.6 |
| 20260507133024 | 53 | 29 | 3.0 | 8.0 | 0.00 | 0.22 | 0.02 | 61 | 1012.9 |
| 20260507132506 | 53 | 69 | 1.0 | 7.0 | 0.00 | 0.22 | 0.02 | 63 | 1012.9 |
| 20260507132008 | 52 | 321 | 2.0 | 5.0 | 0.00 | 0.23 | 0.02 | 67 | 1013.0 |
| 20260507131531 | 52 | 5 | 0.0 | 2.0 | 0.00 | 0.23 | 0.02 | 70 | 1012.9 |
| 20260507131004 | 52 | 38 | 0.0 | 3.0 | 0.00 | 0.23 | 0.02 | 68 | 1013.1 |
| 20260507130505 | 52 | 94 | 0.0 | 3.0 | 0.00 | 0.23 | 0.02 | 69 | 1012.9 |
| 20260507130011 | 52 | 41 | 1.0 | 7.0 | 0.00 | 0.24 | 0.02 | 69 | 1012.7 |
| 20260507125505 | 52 | 5 | 2.0 | 7.0 | 0.00 | 0.24 | 0.02 | 68 | 1012.7 |
| 20260507125005 | 52 | 352 | 2.0 | 7.0 | 0.00 | 0.25 | 0.02 | 69 | 1012.5 |
| 20260507124517 | 52 | 5 | 2.0 | 7.0 | 0.00 | 0.26 | 0.02 | 70 | 1012.5 |
| 20260507124006 | 52 | 50 | 2.0 | 5.0 | 0.00 | 0.27 | 0.02 | 70 | 1012.6 |
| 20260507123512 | 52 | 334 | 1.0 | 5.0 | 0.00 | 0.28 | 0.02 | 70 | 1012.7 |
| 20260507123019 | 52 | 350 | 0.0 | 6.0 | 0.00 | 0.30 | 0.02 | 72 | 1012.5 |
| 20260507122508 | 52 | 40 | 1.0 | 6.0 | 0.00 | 0.31 | 0.02 | 71 | 1012.5 |
| 20260507122013 | 52 | 352 | 2.0 | 5.0 | 0.00 | 0.31 | 0.02 | 71 | 1012.7 |
| 20260507121524 | 52 | 201 | 0.0 | 3.0 | 0.00 | 0.32 | 0.02 | 72 | 1012.5 |
| 20260507121012 | 52 | 125 | 0.0 | 5.0 | 0.00 | 0.32 | 0.02 | 72 | 1012.4 |
| 20260507120506 | 52 | 55 | 3.0 | 5.0 | 0.00 | 0.32 | 0.02 | 73 | 1012.3 |
| 20260507120027 | 52 | 23 | 1.0 | 6.0 | 0.00 | 0.32 | 0.02 | 73 | 1012.5 |
| 20260507115510 | 52 | 24 | 0.0 | 6.0 | 0.00 | 0.32 | 0.02 | 73 | 1012.4 |
| 20260507115008 | 52 | 31 | 3.0 | 6.0 | 0.00 | 0.32 | 0.02 | 74 | 1012.3 |
| 20260507114511 | 52 | 123 | 2.0 | 6.0 | 0.00 | 0.32 | 0.02 | 74 | 1012.4 |
| 20260507114006 | 52 | 293 | 1.0 | 4.0 | 0.00 | 0.32 | 0.02 | 75 | 1012.4 |
| 20260507113510 | 52 | 37 | 2.0 | 5.0 | 0.00 | 0.33 | 0.02 | 78 | 1012.3 |
| 20260507113016 | 53 | 63 | 3.0 | 5.0 | 0.00 | 0.34 | 0.02 | 79 | 1012.2 |
| 20260507112514 | 53 | 38 | 2.0 | 3.0 | 0.00 | 0.34 | 0.02 | 80 | 1012.1 |
| 20260507112006 | 53 | 27 | 1.0 | 3.0 | 0.00 | 0.35 | 0.02 | 81 | 1012.0 |
| 20260507111533 | 53 | 52 | 1.0 | 3.0 | 0.00 | 0.36 | 0.02 | 80 | 1012.0 |
| 20260507111009 | 53 | 5 | 0.0 | 3.0 | 0.00 | 0.37 | 0.02 | 81 | 1011.9 |
| 20260507110510 | 53 | 318 | 1.0 | 3.0 | 0.00 | 0.37 | 0.02 | 81 | 1011.9 |
| 20260507110026 | 53 | 342 | 1.0 | 4.0 | 0.00 | 0.37 | 0.02 | 81 | 1011.8 |
| 20260507105503 | 53 | 41 | 2.0 | 4.0 | 0.00 | 0.38 | 0.02 | 80 | 1011.7 |
| 20260507105008 | 53 | 221 | 0.0 | 2.0 | 0.00 | 0.38 | 0.02 | 81 | 1011.9 |
| 20260507104511 | 53 | 95 | 0.0 | 2.0 | 0.00 | 0.38 | 0.02 | 83 | 1011.8 |
| 20260507104007 | 52 | 26 | 0.0 | 2.0 | 0.00 | 0.38 | 0.02 | 82 | 1012.0 |
| 20260507103505 | 53 | 108 | 0.0 | 2.0 | 0.00 | 0.38 | 0.02 | 82 | 1011.9 |
| 20260507103016 | 52 | 116 | 1.0 | 2.0 | 0.00 | 0.38 | 0.02 | 82 | 1011.7 |
| 20260507102506 | 52 | 80 | 0.0 | 2.0 | 0.00 | 0.38 | 0.02 | 84 | 1011.7 |
| 20260507102007 | 53 | 80 | 0.0 | 2.0 | 0.00 | 0.38 | 0.02 | 80 | 1011.7 |
| 20260507101509 | 53 | 102 | 1.0 | 2.0 | 0.00 | 0.38 | 0.02 | 77 | 1011.6 |
| 20260507101006 | 53 | 47 | 0.0 | 2.0 | 0.00 | 0.38 | 0.02 | 78 | 1011.7 |
| 20260507100503 | 53 | 26 | 0.0 | 5.0 | 0.00 | 0.38 | 0.02 | 77 | 1011.7 |
| 20260507100007 | 53 | 26 | 0.0 | 5.0 | 0.00 | 0.38 | 0.02 | 77 | 1011.6 |
| 20260507095504 | 53 | 23 | 1.0 | 7.0 | 0.00 | 0.38 | 0.02 | 77 | 1011.5 |
| 20260507095004 | 53 | 360 | 1.0 | 8.0 | 0.00 | 0.38 | 0.02 | 77 | 1011.4 |
| 20260507094509 | 53 | 9 | 2.0 | 8.0 | 0.00 | 0.38 | 0.02 | 77 | 1011.3 |
| 20260507094005 | 53 | 40 | 1.0 | 4.0 | 0.00 | 0.38 | 0.02 | 78 | 1011.3 |
| 20260507093506 | 53 | 15 | 1.0 | 4.0 | 0.00 | 0.38 | 0.02 | 77 | 1011.4 |
| 20260507093015 | 53 | 15 | 0.0 | 4.0 | 0.00 | 0.38 | 0.02 | 78 | 1011.2 |
| 20260507092507 | 53 | 12 | 1.0 | 4.0 | 0.00 | 0.38 | 0.02 | 78 | 1011.4 |
| 20260507092007 | 53 | 352 | 0.0 | 5.0 | 0.00 | 0.38 | 0.02 | 77 | 1011.4 |
| 20260507091524 | 53 | 42 | 1.0 | 5.0 | 0.00 | 0.38 | 0.02 | 77 | 1011.3 |
| 20260507091008 | 53 | 23 | 1.0 | 7.0 | 0.00 | 0.38 | 0.02 | 77 | 1011.4 |
| 20260507090509 | 53 | 13 | 3.0 | 7.0 | 0.00 | 0.38 | 0.02 | 77 | 1011.2 |
| 20260507090032 | 53 | 304 | 2.0 | 7.0 | 0.00 | 0.38 | 0.02 | 79 | 1011.0 |
| 20260507085503 | 53 | 38 | 1.0 | 7.0 | 0.00 | 0.38 | 0.02 | 80 | 1011.0 |
| 20260507085003 | 53 | 327 | 2.0 | 4.0 | 0.00 | 0.38 | 0.02 | 79 | 1011.0 |
| 20260507084506 | 53 | 38 | 1.0 | 4.0 | 0.00 | 0.38 | 0.02 | 79 | 1011.0 |
| 20260507084004 | 53 | 42 | 0.0 | 2.0 | 0.00 | 0.38 | 0.02 | 78 | 1011.0 |
| 20260507083504 | 53 | 46 | 0.0 | 2.0 | 0.00 | 0.38 | 0.02 | 77 | 1011.2 |
| 20260507083011 | 53 | 55 | 0.0 | 2.0 | 0.00 | 0.38 | 0.02 | 78 | 1011.3 |
| 20260507082505 | 53 | 174 | 0.0 | 3.0 | 0.00 | 0.38 | 0.02 | 78 | 1011.2 |
| 20260507082007 | 53 | 344 | 0.0 | 5.0 | 0.00 | 0.38 | 0.02 | 79 | 1011.1 |
| 20260507081516 | 53 | 159 | 1.0 | 6.0 | 0.00 | 0.38 | 0.02 | 78 | 1011.1 |
| 20260507081008 | 53 | 277 | 2.0 | 6.0 | 0.00 | 0.38 | 0.02 | 79 | 1011.2 |
| 20260507080508 | 53 | 328 | 2.0 | 5.0 | 0.00 | 0.38 | 0.02 | 80 | 1010.9 |
| 20260507080024 | 53 | 312 | 2.0 | 8.0 | 0.00 | 0.38 | 0.02 | 80 | 1010.9 |
| 20260507075508 | 53 | 343 | 4.0 | 8.0 | 0.00 | 0.38 | 0.02 | 79 | 1011.0 |
| 20260507075009 | 53 | 9 | 1.0 | 5.0 | 0.00 | 0.38 | 0.02 | 81 | 1010.9 |
| 20260507074523 | 53 | 298 | 1.0 | 6.0 | 0.00 | 0.38 | 0.02 | 80 | 1010.8 |
| 20260507074006 | 53 | 345 | 2.0 | 6.0 | 0.00 | 0.38 | 0.02 | 80 | 1010.5 |
| 20260507073504 | 53 | 22 | 2.0 | 4.0 | 0.00 | 0.38 | 0.02 | 81 | 1010.5 |
| 20260507073011 | 53 | 334 | 2.0 | 5.0 | 0.00 | 0.38 | 0.02 | 81 | 1010.5 |
| 20260507072505 | 53 | 360 | 1.0 | 5.0 | 0.00 | 0.38 | 0.02 | 81 | 1010.6 |
| 20260507072004 | 53 | 98 | 0.0 | 9.0 | 0.00 | 0.38 | 0.02 | 82 | 1010.6 |
| 20260507071514 | 53 | 62 | 2.0 | 9.0 | 0.00 | 0.38 | 0.02 | 80 | 1010.6 |
| 20260507071005 | 53 | 5 | 2.0 | 9.0 | 0.01 | 0.38 | 0.02 | 81 | 1010.5 |
| 20260507070508 | 53 | 329 | 2.0 | 9.0 | 0.01 | 0.38 | 0.02 | 83 | 1010.3 |
| 20260507070024 | 53 | 329 | 0.0 | 2.0 | 0.01 | 0.38 | 0.02 | 84 | 1010.5 |
| 20260507065507 | 53 | 32 | 0.0 | 8.0 | 0.01 | 0.38 | 0.02 | 83 | 1010.8 |
| 20260507065009 | 53 | 339 | 2.0 | 8.0 | 0.01 | 0.38 | 0.02 | 82 | 1010.6 |
| 20260507064525 | 53 | 30 | 3.0 | 7.0 | 0.01 | 0.38 | 0.02 | 83 | 1010.6 |
| 20260507064009 | 53 | 5 | 3.0 | 7.0 | 0.01 | 0.38 | 0.02 | 83 | 1010.5 |
| 20260507063509 | 53 | 317 | 2.0 | 6.0 | 0.01 | 0.38 | 0.02 | 83 | 1010.5 |
| 20260507063026 | 53 | 343 | 3.0 | 8.0 | 0.01 | 0.38 | 0.02 | 84 | 1010.6 |
| 20260507062508 | 53 | 39 | 2.0 | 9.0 | 0.01 | 0.38 | 0.02 | 84 | 1010.7 |
| 20260507062009 | 53 | 351 | 3.0 | 9.0 | 0.01 | 0.38 | 0.02 | 85 | 1010.7 |
| 20260507061513 | 53 | 5 | 2.0 | 9.0 | 0.01 | 0.38 | 0.02 | 85 | 1010.8 |
| 20260507061005 | 54 | 352 | 3.0 | 9.0 | 0.00 | 0.37 | 0.01 | 85 | 1010.7 |
| 20260507060506 | 54 | 55 | 0.0 | 8.0 | 0.01 | 0.37 | 0.01 | 85 | 1011.1 |
| 20260507060016 | 54 | 302 | 4.0 | 8.0 | 0.01 | 0.37 | 0.01 | 84 | 1011.2 |
| 20260507055507 | 54 | 287 | 1.0 | 4.0 | 0.01 | 0.37 | 0.01 | 85 | 1011.1 |
| 20260507055009 | 54 | 336 | 1.0 | 6.0 | 0.01 | 0.37 | 0.01 | 86 | 1010.7 |
| 20260507054530 | 54 | 5 | 2.0 | 6.0 | 0.01 | 0.37 | 0.01 | 86 | 1010.6 |
| 20260507054006 | 54 | 44 | 2.0 | 9.0 | 0.01 | 0.37 | 0.01 | 86 | 1010.7 |
| 20260507053509 | 54 | 277 | 2.0 | 10.0 | 0.01 | 0.37 | 0.01 | 87 | 1010.9 |
| 20260507053024 | 55 | 90 | 0.0 | 10.0 | 0.01 | 0.37 | 0.01 | 87 | 1010.7 |
| 20260507052506 | 55 | 113 | 3.0 | 7.0 | 0.01 | 0.37 | 0.01 | 87 | 1010.8 |
| 20260507052009 | 55 | 352 | 2.0 | 7.0 | 0.01 | 0.37 | 0.01 | 87 | 1010.7 |
| 20260507051526 | 55 | 36 | 3.0 | 6.0 | 0.01 | 0.37 | 0.01 | 87 | 1010.6 |
| 20260507051008 | 55 | 28 | 2.0 | 5.0 | 0.01 | 0.37 | 0.01 | 88 | 1010.6 |
| 20260507050513 | 55 | 34 | 2.0 | 5.0 | 0.00 | 0.36 | 0.00 | 88 | 1010.6 |
| 20260507050032 | 55 | 49 | 1.0 | 5.0 | 0.00 | 0.36 | 0.00 | 89 | 1010.6 |
| 20260507045506 | 55 | 318 | 2.0 | 4.0 | 0.00 | 0.36 | 0.00 | 89 | 1010.8 |
| 20260507045005 | 55 | 317 | 0.0 | 4.0 | 0.00 | 0.36 | 0.00 | 89 | 1010.3 |
| 20260507044517 | 55 | 339 | 1.0 | 4.0 | 0.00 | 0.36 | 0.00 | 88 | 1009.9 |
| 20260507044008 | 55 | 141 | 1.0 | 5.0 | 0.00 | 0.36 | 0.00 | 88 | 1009.4 |
| 20260507043505 | 56 | 30 | 1.0 | 5.0 | 0.00 | 0.36 | 0.00 | 89 | 1010.0 |
| 20260507043024 | 56 | 38 | 2.0 | 4.0 | 0.00 | 0.36 | 0.00 | 89 | 1010.4 |
| 20260507042508 | 56 | 351 | 1.0 | 3.0 | 0.00 | 0.36 | 0.00 | 88 | 1010.4 |
| 20260507042005 | 56 | 24 | 1.0 | 3.0 | 0.00 | 0.36 | 0.00 | 89 | 1010.2 |
| 20260507041508 | 56 | 9 | 0.0 | 4.0 | 0.00 | 0.36 | 0.00 | 88 | 1010.2 |
| 20260507041004 | 56 | 329 | 0.0 | 8.0 | 0.00 | 0.36 | 0.00 | 87 | 1010.0 |
| 20260507040505 | 56 | 26 | 1.0 | 8.0 | 0.00 | 0.36 | 0.00 | 89 | 1010.4 |
| 20260507040009 | 56 | 14 | 2.0 | 5.0 | 0.00 | 0.36 | 0.00 | 90 | 1010.6 |
| 20260507035504 | 56 | 286 | 2.0 | 4.0 | 0.00 | 0.36 | 0.36 | 90 | 1010.7 |
| 20260507035004 | 56 | 13 | 0.0 | 2.0 | 0.00 | 0.36 | 0.36 | 90 | 1010.6 |
| 20260507034507 | 56 | 344 | 0.0 | 2.0 | 0.00 | 0.36 | 0.36 | 90 | 1010.7 |
| 20260507034004 | 56 | 296 | 0.0 | 4.0 | 0.00 | 0.36 | 0.36 | 89 | 1010.7 |
| 20260507033507 | 57 | 315 | 1.0 | 4.0 | 0.00 | 0.36 | 0.36 | 89 | 1010.3 |
| 20260507033008 | 57 | 44 | 1.0 | 3.0 | 0.01 | 0.36 | 0.36 | 88 | 1010.0 |
| 20260507032504 | 57 | 56 | 1.0 | 3.0 | 0.01 | 0.36 | 0.36 | 88 | 1009.9 |
| 20260507032003 | 57 | 315 | 1.0 | 3.0 | 0.02 | 0.36 | 0.36 | 90 | 1010.0 |
| 20260507031504 | 58 | 352 | 0.0 | 6.0 | 0.02 | 0.36 | 0.36 | 90 | 1010.1 |
| 20260507031004 | 58 | 330 | 2.0 | 6.0 | 0.02 | 0.36 | 0.36 | 90 | 1010.2 |
| 20260507030504 | 58 | 347 | 0.0 | 5.0 | 0.02 | 0.36 | 0.36 | 91 | 1010.1 |
| 20260507030008 | 58 | 5 | 0.0 | 4.0 | 0.02 | 0.36 | 0.36 | 91 | 1010.0 |
| 20260507025507 | 58 | 343 | 0.0 | 4.0 | 0.02 | 0.36 | 0.36 | 91 | 1010.1 |
| 20260507025004 | 58 | 14 | 1.0 | 3.0 | 0.02 | 0.36 | 0.36 | 91 | 1010.1 |
| 20260507024512 | 58 | 309 | 0.0 | 3.0 | 0.02 | 0.36 | 0.36 | 91 | 1010.0 |
| 20260507024006 | 59 | 290 | 1.0 | 4.0 | 0.02 | 0.36 | 0.36 | 90 | 1009.9 |
| 20260507023504 | 59 | 352 | 2.0 | 5.0 | 0.02 | 0.36 | 0.36 | 90 | 1009.6 |
| 20260507023010 | 60 | 50 | 2.0 | 7.0 | 0.01 | 0.35 | 0.35 | 90 | 1009.4 |
| 20260507022505 | 60 | 112 | 2.0 | 7.0 | 0.01 | 0.35 | 0.35 | 91 | 1009.4 |
| 20260507022006 | 60 | 295 | 2.0 | 5.0 | 0.00 | 0.34 | 0.34 | 92 | 1010.0 |
| 20260507021512 | 60 | 5 | 2.0 | 5.0 | 0.00 | 0.34 | 0.34 | 93 | 1009.5 |
| 20260507021005 | 60 | 330 | 0.0 | 3.0 | 0.00 | 0.34 | 0.34 | 93 | 1009.6 |
| 20260507020507 | 61 | 352 | 2.0 | 3.0 | 0.00 | 0.34 | 0.34 | 93 | 1009.6 |
| 20260507020008 | 61 | 345 | 0.0 | 2.0 | 0.00 | 0.34 | 0.34 | 93 | 1009.7 |
| 20260507015503 | 61 | 309 | 0.0 | 2.0 | 0.00 | 0.34 | 0.34 | 93 | 1009.6 |
| 20260507015004 | 61 | 309 | 1.0 | 2.0 | 0.00 | 0.34 | 0.34 | 93 | 1009.4 |
| 20260507014519 | 61 | 14 | 0.0 | 2.0 | 0.00 | 0.34 | 0.34 | 93 | 1009.1 |
| 20260507014006 | 61 | 5 | 0.0 | 2.0 | 0.00 | 0.34 | 0.34 | 92 | 1009.0 |
| 20260507013505 | 61 | 49 | 0.0 | 2.0 | 0.00 | 0.34 | 0.34 | 92 | 1009.2 |
| 20260507013030 | 61 | 107 | 1.0 | 2.0 | 0.00 | 0.34 | 0.34 | 92 | 1009.2 |
| 20260507012505 | 61 | 14 | 0.0 | 2.0 | 0.00 | 0.34 | 0.34 | 91 | 1009.3 |
| 20260507012006 | 62 | 14 | 1.0 | 4.0 | 0.00 | 0.34 | 0.34 | 91 | 1009.3 |
| 20260507011514 | 62 | 5 | 2.0 | 4.0 | 0.00 | 0.34 | 0.34 | 91 | 1009.2 |
| 20260507011003 | 62 | 50 | 0.0 | 6.0 | 0.00 | 0.34 | 0.34 | 91 | 1009.2 |
| 20260507010503 | 62 | 214 | 3.0 | 6.0 | 0.00 | 0.34 | 0.34 | 92 | 1009.8 |
| 20260507010024 | 62 | 292 | 1.0 | 3.0 | 0.00 | 0.34 | 0.34 | 93 | 1009.4 |
| 20260507005505 | 63 | 352 | 1.0 | 2.0 | 0.00 | 0.34 | 0.34 | 92 | 1009.2 |
| 20260507005007 | 63 | 36 | 1.0 | 2.0 | 0.00 | 0.34 | 0.34 | 93 | 1009.4 |
| 20260507004507 | 63 | 296 | 0.0 | 3.0 | 0.01 | 0.34 | 0.34 | 93 | 1009.6 |
| 20260507004005 | 63 | 268 | 0.0 | 3.0 | 0.03 | 0.34 | 0.34 | 93 | 1009.4 |
| 20260507003506 | 63 | 310 | 0.0 | 2.0 | 0.06 | 0.34 | 0.34 | 93 | 1009.2 |
| 20260507003015 | 63 | 313 | 0.0 | 2.0 | 0.07 | 0.34 | 0.34 | 93 | 1009.0 |
| 20260507002510 | 64 | 352 | 0.0 | 2.0 | 0.07 | 0.34 | 0.34 | 93 | 1009.0 |
| 20260507002008 | 64 | 352 | 1.0 | 4.0 | 0.07 | 0.34 | 0.34 | 93 | 1008.9 |
| 20260507001515 | 64 | 330 | 0.0 | 4.0 | 0.11 | 0.34 | 0.34 | 93 | 1008.8 |
| 20260507001007 | 64 | 304 | 0.0 | 3.0 | 0.15 | 0.34 | 0.34 | 93 | 1008.6 |
| 20260507000507 | 64 | 56 | 1.0 | 3.0 | 0.15 | 0.34 | 0.34 | 93 | 1008.9 |
| 20260507000014 | 64 | 41 | 1.0 | 2.0 | 0.15 | 0.34 | 0.34 | 93 | 1008.7 |
| 20260506235508 | 64 | 344 | 0.0 | 2.0 | 0.15 | 0.34 | 0.34 | 93 | 1008.7 |
| 20260506235007 | 64 | 202 | 0.0 | 2.0 | 0.15 | 0.34 | 0.34 | 92 | 1008.7 |
| 20260506234518 | 64 | 323 | 0.0 | 2.0 | 0.14 | 0.33 | 0.33 | 92 | 1008.6 |
| 20260506234011 | 64 | 329 | 0.0 | 2.0 | 0.12 | 0.31 | 0.31 | 91 | 1008.3 |
| 20260506233507 | 64 | 29 | 1.0 | 2.0 | 0.09 | 0.28 | 0.28 | 91 | 1008.3 |
| 20260506233017 | 64 | 46 | 0.0 | 2.0 | 0.08 | 0.27 | 0.27 | 91 | 1008.1 |
| 20260506232505 | 64 | 46 | 0.0 | 4.0 | 0.08 | 0.27 | 0.27 | 89 | 1008.2 |
| 20260506232006 | 65 | 51 | 1.0 | 4.0 | 0.08 | 0.27 | 0.27 | 88 | 1008.3 |
| 20260506231517 | 66 | 12 | 2.0 | 3.0 | 0.04 | 0.23 | 0.23 | 86 | 1008.2 |
| 20260506231006 | 66 | 352 | 0.0 | 2.0 | 0.00 | 0.19 | 0.19 | 84 | 1007.9 |
| 20260506230507 | 67 | 331 | 1.0 | 2.0 | 0.00 | 0.19 | 0.19 | 83 | 1008.0 |
| 20260506230020 | 67 | 254 | 0.0 | 3.0 | 0.00 | 0.19 | 0.19 | 80 | 1007.9 |
| 20260506225506 | 68 | 217 | 1.0 | 3.0 | 0.00 | 0.19 | 0.19 | 80 | 1007.9 |
| 20260506225006 | 68 | 225 | 0.0 | 2.0 | 0.00 | 0.19 | 0.19 | 80 | 1007.7 |
| 20260506224520 | 68 | 230 | 0.0 | 4.0 | 0.00 | 0.19 | 0.19 | 80 | 1007.6 |
| 20260506224007 | 68 | 204 | 1.0 | 5.0 | 0.00 | 0.19 | 0.19 | 79 | 1007.8 |
| 20260506223508 | 68 | 144 | 1.0 | 5.0 | 0.00 | 0.19 | 0.19 | 79 | 1007.7 |
| 20260506223022 | 68 | 167 | 2.0 | 4.0 | 0.00 | 0.19 | 0.19 | 79 | 1007.6 |
| 20260506222511 | 68 | 169 | 0.0 | 5.0 | 0.00 | 0.19 | 0.19 | 79 | 1007.6 |
| 20260506222012 | 68 | 209 | 1.0 | 5.0 | 0.00 | 0.19 | 0.19 | 79 | 1007.7 |
| 20260506221521 | 68 | 204 | 1.0 | 4.0 | 0.00 | 0.19 | 0.19 | 79 | 1007.7 |
| 20260506221011 | 68 | 194 | 2.0 | 7.0 | 0.00 | 0.19 | 0.19 | 79 | 1007.8 |
| 20260506220507 | 68 | 215 | 1.0 | 7.0 | 0.00 | 0.19 | 0.19 | 79 | 1007.7 |
| 20260506220017 | 68 | 191 | 3.0 | 7.0 | 0.00 | 0.19 | 0.19 | 79 | 1007.7 |
| 20260506215504 | 68 | 227 | 2.0 | 6.0 | 0.00 | 0.19 | 0.19 | 79 | 1007.6 |
| 20260506215003 | 68 | 171 | 2.0 | 6.0 | 0.00 | 0.19 | 0.19 | 78 | 1007.6 |
| 20260506214508 | 68 | 285 | 1.0 | 6.0 | 0.00 | 0.19 | 0.19 | 79 | 1007.5 |
| 20260506214003 | 68 | 192 | 2.0 | 5.0 | 0.00 | 0.19 | 0.19 | 79 | 1007.5 |
| 20260506213504 | 68 | 180 | 1.0 | 6.0 | 0.00 | 0.19 | 0.19 | 79 | 1007.6 |
| 20260506213004 | 68 | 200 | 2.0 | 6.0 | 0.00 | 0.19 | 0.19 | 79 | 1007.6 |
| 20260506212505 | 68 | 240 | 3.0 | 9.0 | 0.00 | 0.19 | 0.19 | 78 | 1007.6 |
| 20260506212004 | 68 | 210 | 3.0 | 9.0 | 0.00 | 0.19 | 0.19 | 78 | 1007.5 |
| 20260506211510 | 68 | 218 | 1.0 | 6.0 | 0.00 | 0.19 | 0.19 | 78 | 1007.6 |
| 20260506211004 | 68 | 242 | 2.0 | 6.0 | 0.00 | 0.19 | 0.19 | 77 | 1007.6 |
| 20260506210506 | 69 | 230 | 2.0 | 7.0 | 0.00 | 0.19 | 0.19 | 78 | 1007.5 |
| 20260506210006 | 68 | 182 | 3.0 | 7.0 | 0.00 | 0.19 | 0.19 | 79 | 1007.4 |
| 20260506205502 | 68 | 234 | 2.0 | 6.0 | 0.00 | 0.19 | 0.19 | 79 | 1007.4 |
| 20260506205002 | 68 | 213 | 3.0 | 7.0 | 0.00 | 0.19 | 0.19 | 79 | 1007.3 |
| 20260506204504 | 68 | 210 | 3.0 | 7.0 | 0.00 | 0.19 | 0.19 | 79 | 1007.4 |
| 20260506204010 | 68 | 184 | 3.0 | 7.0 | 0.00 | 0.19 | 0.19 | 79 | 1007.3 |
| 20260506203503 | 68 | 127 | 4.0 | 8.0 | 0.00 | 0.19 | 0.19 | 79 | 1007.4 |
| 20260506203004 | 68 | 190 | 4.0 | 10.0 | 0.00 | 0.19 | 0.19 | 78 | 1007.3 |
| 20260506202508 | 68 | 259 | 3.0 | 10.0 | 0.00 | 0.19 | 0.19 | 79 | 1007.2 |
| 20260506202004 | 68 | 223 | 3.0 | 9.0 | 0.00 | 0.19 | 0.19 | 79 | 1007.1 |
| 20260506201512 | 67 | 169 | 4.0 | 9.0 | 0.00 | 0.19 | 0.19 | 79 | 1007.1 |
| 20260506201004 | 67 | 187 | 2.0 | 8.0 | 0.00 | 0.19 | 0.19 | 80 | 1007.3 |
| 20260506200504 | 67 | 207 | 3.0 | 8.0 | 0.00 | 0.19 | 0.19 | 80 | 1007.4 |
| 20260506200012 | 67 | 248 | 3.0 | 7.0 | 0.00 | 0.19 | 0.19 | 80 | 1007.3 |
| 20260506195505 | 67 | 202 | 2.0 | 8.0 | 0.00 | 0.19 | 0.19 | 80 | 1007.4 |
| 20260506195005 | 67 | 209 | 3.0 | 8.0 | 0.00 | 0.19 | 0.19 | 80 | 1007.4 |
| 20260506194520 | 67 | 196 | 3.0 | 8.0 | 0.00 | 0.19 | 0.19 | 81 | 1007.5 |
| 20260506194002 | 66 | 217 | 4.0 | 8.0 | 0.00 | 0.19 | 0.19 | 80 | 1007.5 |
| 20260506193504 | 66 | 207 | 4.0 | 6.0 | 0.00 | 0.19 | 0.19 | 80 | 1007.5 |
| 20260506193004 | 66 | 139 | 3.0 | 9.0 | 0.00 | 0.19 | 0.19 | 81 | 1007.5 |
| 20260506192503 | 66 | 190 | 4.0 | 9.0 | 0.00 | 0.19 | 0.19 | 80 | 1007.6 |
| 20260506192003 | 67 | 217 | 2.0 | 11.0 | 0.00 | 0.19 | 0.19 | 80 | 1007.5 |
| 20260506191507 | 66 | 167 | 2.0 | 11.0 | 0.00 | 0.19 | 0.19 | 80 | 1007.5 |
| 20260506191006 | 66 | 146 | 5.0 | 11.0 | 0.00 | 0.19 | 0.19 | 80 | 1007.7 |
| 20260506190505 | 67 | 239 | 6.0 | 10.0 | 0.00 | 0.19 | 0.19 | 79 | 1007.7 |
| 20260506190014 | 67 | 236 | 2.0 | 10.0 | 0.00 | 0.19 | 0.19 | 80 | 1007.7 |